Zurück zum Katalog

COSMOS 2251 DEB

AktivVLEO
NORAD 34452·DEBRIS·🇷🇺 Russia

Gestartet Jun 16, 1993 von Plesetsk Cosmodrome

Loading…

Nächste Überflüge (nächste 24 Stunden)

TLE

AktuellSource: Space-Track

Epoche: Sep 14, 2026, 12:44 UTC

1 34452U 93036SV  26257.53087099  .00009657  00000-0  43610-3 0  9996
2 34452  74.0278 327.7827 0056899 329.7727  30.0191 15.19591589948422

Verfolge COSMOS 2251 DEB in Echtzeit mit AllMySat

Download on the App Store